Location: Long Island Cemetery
(39.9580°N, 99.5399°W)
Time: 12:18:05
(UTC+00:00)

Daily predictions for brighter satellites

Satellite Brightness Start Highest point End
(mag) Time Altitude Azimuth Time Altitude Azimuth Time Altitude Azimuth
Abrixas rocket 4.3 12:07:11 17° NNE 12:07:11 17° NNE 12:08:55 10° NE
SJ-12 3.7 12:03:15 10° N 12:07:17 69° WNW 12:11:20 10° SSW
SKYMED 3 4.4 12:04:46 10° S 12:09:05 67° W 12:10:53 33° NNW
STARLINK-34 3.5 12:10:05 40° SW 12:11:27 81° SE 12:15:29 10° NE
Cosmos 2344 3.7 12:08:10 27° WSW 12:12:04 50° NW 12:19:54 10° NNE
Cosmos 1538 Rocket 4.0 12:07:09 10° SSW 12:12:25 59° WNW 12:17:41 10° NNE
Cosmos 2082 3.9 12:10:42 35° WNW 12:12:40 49° WSW 12:18:08 10° S
STARLINK-24 3.5 12:12:06 38° SW 12:13:34 83° SE 12:17:35 10° NE
STARLINK-81 3.6 12:12:52 33° SW 12:14:35 78° SE 12:18:37 10° NE
MOS 1-B 4.2 12:09:03 10° N 12:14:50 76° WNW 12:20:37 10° SSW
STARLINK-46 4.2 12:17:24 25° ESE 12:17:24 25° ESE 12:18:27 10° ESE
STARLINK-54 3.4 12:14:51 36° SW 12:16:25 88° SE 12:20:27 10° NE
CZ-4B DEB 4.1 12:12:13 10° N 12:17:47 78° WNW 12:23:17 10° SSW
STARLINK-77 3.5 12:16:02 31° SW 12:17:53 83° SE 12:21:55 10° NE
STARLINK-26 4.1 12:19:24 33° NNW 12:19:24 33° NNW 12:22:16 10° NE
STARLINK-25 3.5 12:17:39 30° SW 12:19:32 86° SE 12:23:35 10° NE
Cosmos 2228 3.2 12:15:24 10° S 12:19:47 74° E 12:24:11 10° NNE
NOSS 2-2 (D) 4.2 12:21:12 29° NNW 12:21:12 29° NNW 12:24:05 10° NNE
STARLINK-71 3.4 12:19:41 33° SW 12:21:24 83° NW 12:25:26 10° NE
STARLINK-79 3.4 12:20:49 28° SW 12:22:50 88° NW 12:26:52 10° NE
Cosmos 2297 Rocket 3.6 12:25:29 19° WSW 12:25:29 19° WSW 12:28:19 10° SSW
STARLINK-78 3.4 12:22:29 28° SW 12:24:32 85° NW 12:28:35 10° NE
ALOS 2.4 12:21:04 10° N 12:25:36 50° WNW 12:30:06 10° SSW
STARLINK-33 3.2 12:25:06 39° WSW 12:26:16 68° NW 12:29:54 10° NE
STARLINK-57 3.4 12:24:17 28° WSW 12:26:18 79° NW 12:30:20 10° NE
Cosmos 1602 Rocket 4.4 12:27:07 29° WSW 12:27:07 29° WSW 12:30:18 10° SSW
Cosmos 2322 Rocket 3.8 12:22:08 10° S 12:27:16 37° ESE 12:32:27 10° NE
STARLINK-49 3.4 12:25:36 26° SW 12:27:48 80° NW 12:31:51 10° NE
STARLINK-27 3.4 12:27:15 25° WSW 12:29:29 78° NW 12:33:31 10° NE
STARLINK-66 3.2 12:29:08 35° WSW 12:30:24 61° NW 12:34:00 10° NE
STARLINK-74 3.4 12:28:47 24° WSW 12:31:07 76° NW 12:35:09 10° NE
Cosmos 2181 Rocket 4.0 12:26:12 10° S 12:32:23 90° NNW 12:38:42 10° N
STARLINK-39 3.4 12:30:24 23° WSW 12:32:46 73° NW 12:36:48 10° NE
Helios 1A Rocket 3.0 12:28:39 10° NNE 12:32:47 79° ESE 12:36:54 10° S
SKYMED 2 4.1 12:29:22 10° SSW 12:33:21 35° W 12:35:21 23° NW
STARLINK 3.4 12:32:02 23° WSW 12:34:27 70° NW 12:38:29 10° NE
STARLINK-55 3.3 12:33:30 32° W 12:34:54 54° NW 12:38:28 10° NE
Cosmos 2227 Rocket 3.6 12:36:48 18° WSW 12:36:48 18° WSW 12:39:54 10° SW
STARLINK-69 3.5 12:34:00 24° WSW 12:36:18 63° NW 12:40:18 10° NE
STARLINK-42 3.4 12:35:08 26° WSW 12:37:06 59° NW 12:40:52 10° NE
STARLINK-21 3.5 12:35:15 21° WSW 12:37:47 65° NW 12:41:48 10° NE
Cosmos 1953 Rocket 3.6 12:33:54 10° N 12:38:21 85° E 12:42:44 10° S
STARLINK-64 3.4 12:36:39 24° WSW 12:38:45 59° NW 12:42:33 10° NE
SL-4 R/B 2.2 12:37:33 22° NW 12:39:31 49° NNE 12:42:51 10° ESE
STARLINK-45 3.6 12:37:19 22° WSW 12:39:41 57° NW 12:43:40 10° NE
BREEZE-M DEB (TANK) 3.8 12:38:18 22° NW 12:40:26 36° N 12:50:03 10° ENE
Cosmos 2341 Rocket 4.0 12:34:47 10° NNW 12:40:59 65° W 12:47:06 10° S
STARLINK-70 3.6 12:38:41 21° WSW 12:41:13 58° NW 12:45:12 10° NE
STARLINK-28 3.6 12:40:56 27° W 12:42:24 43° NW 12:45:49 10° NE
STARLINK-76 3.6 12:40:02 19° WSW 12:42:46 59° NW 12:46:45 10° NE
Cosmos 2263 Rocket 2.8 12:37:13 10° NNW 12:42:48 59° ENE 12:48:22 10° SE
NOAA 6 4.0 12:38:04 10° N 12:43:13 65° WNW 12:48:20 10° SSW
Cosmos 1758 Rocket 3.8 12:39:15 10° NNW 12:43:28 47° W 12:47:41 10° SSW
SL-8 Rocket 3.9 12:37:47 10° N 12:44:01 85° W 12:50:11 10° S
STARLINK 3.6 12:41:38 18° WSW 12:44:24 57° NW 12:48:24 10° NE
Cosmos 1680 Rocket 3.5 12:40:44 10° SSW 12:46:03 89° WNW 12:51:25 10° NNE
STARLINK-32 3.6 12:43:15 18° WSW 12:46:05 56° NW 12:50:04 10° NE
Okean O Rocket 1.7 12:42:10 10° N 12:46:32 55° WNW 12:50:51 10° SSW
H-2A R/B 3.2 12:42:53 10° NNE 12:46:48 67° ESE 12:50:39 10° S
STARLINK-40 3.7 12:44:50 17° WSW 12:47:45 54° NW 12:51:43 10° NE
USA 116 4.5 12:43:18 10° S 12:48:01 45° W 12:52:20 10° NNW
STARLINK-44 3.7 12:46:25 16° WSW 12:49:24 52° NW 12:53:21 10° NE
NOSS 7 (D) 4.2 12:48:09 18° NW 12:50:20 82° SW 12:53:52 10° SSE
PSLV R/B 4.2 12:49:37 11° SSW 12:50:59 21° SSE 12:52:31 10° ESE
STARLINK-37 3.8 12:48:14 16° WSW 12:51:10 48° NW 12:55:05 10° NE
STARLINK-36 3.8 12:49:36 15° WSW 12:52:43 49° NW 12:56:39 10° NE
Cosmos 1726 2.6 12:51:01 10° SSW 12:54:25 36° WNW 12:57:51 10° N
STARLINK-68 3.9 12:51:36 16° WSW 12:54:35 44° NNW 12:58:28 10° NE
FALCON 9 DEB 3.3 12:56:30 19° N 12:56:30 19° N 12:57:29 10° NNE
STARLINK 1028 4.3 12:53:22 10° SSW 12:56:05 36° SE 12:58:48 10° ENE
STARLINK-63 3.9 12:52:59 15° WSW 12:56:08 45° NNW 13:00:00 10° NE
STARLINK 1021 4.3 12:53:35 10° SSW 12:56:18 36° SE 12:59:01 10° ENE
STARLINK 1019 4.3 12:53:50 10° SSW 12:56:32 36° SE 12:59:14 10° ENE
STARLINK 1012 4.3 12:54:02 10° SSW 12:56:45 37° SE 12:59:29 10° ENE
STARLINK 1010 4.3 12:54:15 10° SSW 12:56:58 37° SE 12:59:42 10° ENE
Cosmos 1908 3.2 12:53:09 10° SSW 12:57:02 68° W 13:00:57 10° N
STARLINK 1026 4.3 12:54:29 10° SSW 12:57:11 37° SE 12:59:56 10° ENE
STARLINK 1013 4.3 12:54:41 10° SSW 12:57:25 37° SE 13:00:09 10° ENE
STARLINK 1009 4.2 12:54:55 10° SSW 12:57:38 38° SE 13:00:23 10° ENE
STARLINK-35 3.9 12:54:22 13° WSW 12:57:41 45° NNW 13:01:34 10° NE
STARLINK 1015 4.2 12:55:08 10° SSW 12:57:52 38° SE 13:00:36 10° ENE
STARLINK 1016 4.2 12:55:22 10° SSW 12:58:05 38° SE 13:00:50 10° ENE
STARLINK 1008 4.2 12:55:35 10° SSW 12:58:18 38° SE 13:01:03 10° ENE
STARLINK 1025 4.2 12:56:02 10° SSW 12:58:45 39° SE 13:01:31 10° ENE
STARLINK 1017 4.2 12:56:15 10° SSW 12:58:59 39° SE 13:01:45 10° ENE
STARLINK 1014 4.2 12:56:14 10° SSW 12:59:00 39° SE 13:01:46 10° ENE
NOSS 3-2 (C) 4.2 12:51:22 10° NW 12:59:06 88° WSW 13:07:38 10° SSE
STARLINK-61 4.5 12:56:51 17° W 12:59:11 29° NNW 13:02:41 10° NE
STARLINK 1023 4.1 12:56:28 10° SSW 12:59:12 39° SE 13:01:58 10° ENE
STARLINK-51 3.9 12:55:58 13° WSW 12:59:20 44° NNW 13:03:12 10° NE
STARLINK 1007 4.1 12:56:42 10° SSW 12:59:27 40° SE 13:02:12 10° ENE
STARLINK 1048 4.1 12:56:55 10° SSW 12:59:40 40° SE 13:02:26 10° ENE
STARLINK 1049 4.1 12:57:08 10° SSW 12:59:53 40° SE 13:02:39 10° ENE
STARLINK 1051 4.1 12:57:21 10° SSW 13:00:06 40° SE 13:02:52 10° ENE
STARLINK-30 4.0 12:57:34 12° WSW 13:01:01 43° NNW 13:04:53 10° NE
Cosmos 2112 Rocket 4.0 12:57:04 10° SSW 13:02:24 76° WNW 13:07:47 10° NNE
STARLINK-72 4.0 12:59:10 12° WSW 13:02:40 41° NNW 13:06:31 10° NE
STARLINK-50 4.0 13:00:45 11° WSW 13:04:20 40° NNW 13:08:10 10° NE
CZ-3 R/B 3.2 12:50:46 10° W 13:04:28 34° SSW 13:09:23 10° SE
Cosmos 2058 Rocket 3.0 13:00:22 10° SSW 13:04:43 62° W 13:09:05 10° N
SL-16 R/B 2.2 12:59:33 10° SSW 13:05:13 88° WNW 13:10:56 10° NNE
Cosmos 158 Rocket 3.9 13:00:42 10° SSW 13:05:34 86° E 13:10:29 10° NNE
STARLINK-59 4.1 13:02:33 11° W 13:06:07 38° NNW 13:09:54 10° NE
CZ-4 R/B 4.3 13:03:07 10° NE 13:06:30 23° E 13:09:50 10° SSE
Cosmos 1703 3.3 13:02:59 10° NNW 13:06:52 55° W 13:10:42 10° S
STARLINK-56 4.1 13:03:56 10° WSW 13:07:40 38° NNW 13:11:27 10° NE
STARLINK 1060 4.3 13:04:22 10° SSW 13:07:47 46° SE 13:11:13 10° ENE
Cosmos 1825 Rocket 4.4 13:05:34 10° NNW 13:09:14 27° W 13:12:54 10° SSW
Starlink (trailer) 4.2 13:05:35 10° W 13:09:20 37° NNW 13:13:07 10° NE
NOSS 3-4 (A) 3.4 13:04:15 10° SW 13:10:09 65° NW 13:16:25 10° NNE
NOSS 3-4 (C) 3.4 13:04:20 10° SW 13:10:15 65° NW 13:16:31 10° NNE
STARLINK 1030 4.2 13:07:00 10° SSW 13:10:26 49° SE 13:13:53 10° ENE
STARLINK-38 4.2 13:07:14 10° W 13:10:59 36° NNW 13:14:45 10° NE
Orbus 7S? 4.2 13:07:33 10° NW 13:11:09 79° NE 13:19:27 10° SE
STARLINK-75 4.3 13:08:05 11° W 13:11:24 31° NNW 13:14:54 10° NE
ATLAS 3B R/B 3.1 13:04:53 10° NNW 13:11:34 63° NE 13:18:27 10° SE
Cosmos 1953 4.0 13:10:04 10° WSW 13:12:17 14° WNW 13:14:31 10° NW
STARLINK-65 4.2 13:08:54 10° W 13:12:38 36° NNW 13:16:23 10° NE
USA 215 3.8 13:06:47 10° SSE 13:12:51 41° SW 13:18:57 10° WNW
STARLINK 1020 4.1 13:09:38 10° SSW 13:13:06 53° SE 13:16:35 10° ENE
STARLINK-53 4.3 13:10:42 10° W 13:14:23 34° NNW 13:18:05 10° NE
Cosmos 2218 Rocket 4.1 13:08:24 10° NNW 13:14:40 59° W 13:20:51 10° S
STARLINK 1034 4.0 13:12:17 10° SW 13:15:45 56° SE 13:19:16 10° ENE
Cosmos 2360 Rocket 3.4 13:11:10 10° S 13:16:35 48° ESE 13:22:01 10° NE
Genesis I 4.1 13:12:51 10° NNW 13:16:36 47° NE 13:20:18 10° SE
CZ-4B R/B 3.7 13:11:48 10° N 13:16:52 37° WNW 13:21:49 10° SW
STARLINK 1035 3.6 13:14:24 10° SW 13:17:40 60° SE 13:20:57 10° ENE
COSMOS 2455 3.7 13:14:24 10° WSW 13:19:33 29° NW 13:24:44 10° N
STARLINK 1027 3.4 13:16:30 10° SW 13:19:48 69° SE 13:23:07 10° NE
STARLINK-41 4.4 13:17:07 10° W 13:20:35 30° NNW 13:24:04 10° NE
STARLINK 1033 3.7 13:17:37 10° SW 13:21:08 64° SE 13:24:41 10° NE
NOSS 3-2 (A) 4.5 13:14:06 10° NW 13:21:30 47° WSW 13:29:31 10° S
Cosmos 1624 Rocket 4.2 13:17:11 10° NNW 13:22:25 76° ENE 13:27:36 10° SSE
Cosmos 1980 Rocket 3.4 13:19:05 10° W 13:23:18 21° NW 13:27:32 10° N
SMAP 3.2 13:21:05 10° N 13:25:38 55° WNW 13:30:10 10° SSW
Meteor 1-11 4.3 13:22:52 10° NNW 13:28:19 56° W 13:33:49 10° S
STARLINK 4.4 13:25:00 10° W 13:28:23 29° NNW 13:31:48 10° NNE
Feng Yun 1-1 Rocket 4.4 13:26:04 10° N 13:31:59 70° WNW 13:37:47 10° SSW
